Tracking 29528 objects as of 15-Sep-2024
HD Live streaming from Space Station
objects crossing your sky now

ONEWEB-0023

Track ONEWEB-0023 now!
10-day predictions
ONEWEB-0023 is classified as:


NORAD ID: 45136
Int'l Code: 2020-008F
Perigee: 1,227.4 km
Apogee: 1,230.3 km
Inclination: 87.9 °
Period: 109.9 minutes
Semi major axis: 7599 km
RCS: Unknown
Launch date: February 6, 2020
Source: United Kingdom (UK)
Launch site: TYURATAM MISSILE AND SPACE COMPLEX (TTMTR)
Your satellite tracking list
Your tracking list is empty




NASA's NSSDC Master Catalog

Two Line Element Set (TLE):
1 45136U 20008F   24258.43417389  .00000447  00000-0  12436-2 0  9992
2 45136  87.8985 163.7794 0001920  62.1179 298.0142 13.10372661224162
Source of the keplerian elements: AFSPC